Weather History for Friday Harbor, WA

Change the Weather History Date:

Wednesday, June 19, 2013

  Actual Average Record
Temperature  
Mean Temperature 58 °F -  
Max Temperature 69 °F 65 °F 82 °F (2004)
Min Temperature 46 °F 45 °F 39 °F (2007)
Degree Days  
Heating Degree Days 8    
Growing Degree Days 8 (Base 50)    
Moisture  
Dew Point 48 °F    
Average Humidity 71    
Maximum Humidity 97    
Minimum Humidity 49    
Precipitation  
Precipitation 0.00 in - - ()
Sea Level Pressure  
Sea Level Pressure 29.94 in    
Wind  
Wind Speed 3 mph (SSW)    
Max Wind Speed 13 mph    
Max Gust Speed 22 mph    
Visibility 10 miles    
Events      
Averages and records for this station are not official NWS values.
T = Trace of Precipitation, MM = Missing Value Source: NWS Daily Summary

Daily Weather History Graph

Daily Weather History Graph

Search for Another Location

Airport:

Trip Planner

Search our weather history database for the weather conditions in past years. The results will help you decide how hot, cold, wet, or windy it might be!

Date:

Astronomy

Jun. 19, 2013 Rise Set
Actual Time 5:09 AM PDT 9:17 PM PDT
Civil Twilight 4:27 AM PDT 9:59 PM PDT
Nautical Twilight 3:28 AM PDT 10:59 PM PDT
Astronomical Twilight 1:25 AM PDT 1:02 AM PDT
Moon 5:03 PM PDT (6/19) 2:14 AM PDT (6/19)
Length of Visible Light 17h 31m
Length of Day
16h 07m
Waxing Gibbous, 81% of the Moon is Illuminated
Jun 19
Waxing Gibbous
Jun 23
Full
Jun 29
Last Quarter
Jul 8
New
Jul 15
First Quarter

Hourly Weather History & Observations

Time (PDT) Temp. Dew Point Humidity Pressure Visibility Wind Dir Wind Speed Gust Speed Precip Events Conditions
12:53 AM 48.0 °F 46.0 °F 93% 29.94 in 10.0 mi Calm Calm - N/A   Clear
1:53 AM 46.9 °F 46.0 °F 97% 29.93 in 10.0 mi Calm Calm - N/A   Clear
2:53 AM 48.0 °F 46.9 °F 96% 29.92 in 10.0 mi Calm Calm - N/A   Partly Cloudy
3:53 AM 48.0 °F 46.0 °F 93% 29.91 in 10.0 mi Calm Calm - N/A   Scattered Clouds
4:53 AM 50.0 °F 48.9 °F 96% 29.92 in 10.0 mi Calm Calm - N/A   Overcast
5:53 AM 51.1 °F 50.0 °F 96% 29.92 in 10.0 mi Calm Calm - N/A   Overcast
6:53 AM 52.0 °F 50.0 °F 93% 29.94 in 10.0 mi Calm Calm - N/A   Overcast
7:53 AM 55.0 °F 52.0 °F 89% 29.93 in 10.0 mi Calm Calm - N/A   Overcast
8:53 AM 57.9 °F 51.1 °F 78% 29.94 in 10.0 mi Calm Calm - N/A   Scattered Clouds
9:53 AM 57.9 °F 51.1 °F 78% 29.94 in 10.0 mi ESE 3.5 mph - N/A   Overcast
10:53 AM 64.9 °F 50.0 °F 58% 29.93 in 10.0 mi SW 4.6 mph - N/A   Partly Cloudy
11:53 AM 64.9 °F 50.0 °F 58% 29.93 in 10.0 mi South 3.5 mph - N/A   Overcast
12:53 PM 66.9 °F 48.9 °F 52% 29.93 in 10.0 mi Variable 3.5 mph - N/A   Scattered Clouds
1:53 PM 66.9 °F 48.0 °F 51% 29.93 in 10.0 mi SW 10.4 mph - N/A   Clear
2:53 PM 69.1 °F 48.9 °F 49% 29.94 in 10.0 mi SW 9.2 mph - N/A   Scattered Clouds
3:53 PM 69.1 °F 48.9 °F 49% 29.94 in 10.0 mi SSW 11.5 mph 17.3 mph N/A   Clear
4:53 PM 66.9 °F 51.1 °F 57% 29.94 in 10.0 mi SSW 6.9 mph - N/A   Clear
5:53 PM 64.9 °F 48.9 °F 56% 29.94 in 10.0 mi SW 8.1 mph 16.1 mph N/A   Partly Cloudy
6:53 PM 63.0 °F 46.9 °F 56% 29.96 in 10.0 mi SW 12.7 mph 21.9 mph N/A   Scattered Clouds
7:53 PM 62.1 °F 44.1 °F 52% 29.97 in 10.0 mi SW 10.4 mph 19.6 mph N/A   Mostly Cloudy
8:53 PM 60.1 °F 44.1 °F 55% 29.97 in 10.0 mi Variable 6.9 mph - N/A   Scattered Clouds
9:53 PM 57.9 °F 44.1 °F 60% 29.99 in 10.0 mi SW 8.1 mph - N/A   Mostly Cloudy
10:53 PM 57.0 °F 46.0 °F 67% 29.97 in 10.0 mi SW 5.8 mph - N/A   Mostly Cloudy
11:53 PM 55.0 °F 48.0 °F 77% 29.98 in 10.0 mi SW 9.2 mph - N/A   Overcast